EW5589 Weather Reports


time (UTC)temp
C
wind
direction
speed
KPH
gust
KPH
rain 1hr
cm
rain 24hr
cm
rain mn
cm
humidity
%
barometer
mb
20260507074522 5 360 0.0 4.8 0.00 0.64 0.00 87 1012.3
20260507073003 4 360 0.0 0.0 0.00 0.79 0.64 85 1012.4
20260507071502 4 360 0.0 3.2 0.00 0.79 0.64 86 1012.6
20260507070044 5 360 1.6 4.8 0.00 0.79 0.64 86 1012.8
20260507064541 5 360 0.0 4.8 0.00 0.79 0.64 87 1012.6
20260507063032 5 360 1.6 4.8 0.00 1.02 0.64 89 1012.5
20260507061528 5 360 0.0 4.8 0.00 1.02 0.64 90 1012.5
20260507060025 5 360 0.0 6.4 0.00 1.02 0.64 90 1012.6
20260507054523 6 360 1.6 6.4 0.00 1.02 0.64 90 1012.7
20260507053022 6 360 3.2 9.7 0.00 1.27 0.64 91 1012.7
20260507051530 6 360 3.2 8.0 0.00 1.27 0.64 91 1012.9
20260507050027 6 360 4.8 8.0 0.00 1.27 0.64 92 1013.1
20260507044522 6 360 3.2 6.4 0.00 1.27 0.64 91 1013.0
20260507043009 6 360 1.6 4.8 0.00 1.40 0.64 91 1013.0
20260507041502 6 360 0.0 4.8 0.00 1.40 0.64 91 1012.9
20260507040045 6 360 1.6 4.8 0.00 1.40 0.64 92 1012.9
20260507034542 6 360 1.6 6.4 0.00 1.40 0.64 93 1012.8
20260507033036 6 360 4.8 9.7 0.00 1.42 0.64 94 1012.6
20260507031522 6 360 3.2 8.0 0.00 1.42 0.64 95 1012.6
20260507030004 6 360 3.2 9.7 0.00 1.42 0.64 95 1012.6
20260507024504 6 360 3.2 9.7 0.00 1.42 0.64 95 1012.5
20260507023046 6 360 3.2 8.0 0.00 1.45 0.64 96 1012.6
20260507021545 6 360 3.2 8.0 0.00 1.45 0.64 96 1012.5
20260507020027 6 360 4.8 9.7 0.00 1.45 0.64 95 1012.6
20260507014526 6 360 8.0 12.9 0.00 1.45 0.64 96 1012.5
20260507013008 6 360 6.4 12.9 0.00 1.52 0.64 96 1012.4
20260507011507 6 360 6.4 12.9 0.00 1.52 0.64 95 1012.5
20260507010056 6 360 4.8 9.7 0.00 1.52 0.64 95 1012.2
20260507004554 6 360 6.4 11.3 0.03 1.52 0.64 95 1012.1
20260507003030 6 360 1.6 9.7 0.03 1.63 0.64 95 1012.1
20260507001528 6 360 4.8 8.0 0.05 1.63 0.64 94 1011.9
20260507000012 6 360 3.2 6.4 0.10 1.63 0.64 93 1011.7
20260506234509 6 360 4.8 11.3 0.08 1.60 0.61 92 1011.7
20260506233106 7 360 4.8 17.7 0.08 1.73 0.61 92 1011.6
20260506231547 7 360 0.0 4.8 0.05 1.70 0.58 91 1011.2
20260506230043 7 360 0.0 3.2 0.00 1.65 0.53 90 1010.9
20260506224523 8 360 1.6 6.4 0.00 1.65 0.53 90 1010.5
20260506223022 8 360 0.0 4.8 0.00 1.70 0.53 89 1010.4
20260506221508 8 360 3.2 11.3 0.00 1.70 0.53 89 1010.1
20260506220003 7 360 8.0 14.5 0.00 1.70 0.53 89 1010.1
20260506214551 7 360 9.7 12.9 0.00 1.70 0.53 89 1009.8
20260506213044 7 360 6.4 11.3 0.00 1.70 0.53 88 1009.9
20260506211528 7 360 4.8 11.3 0.00 1.70 0.53 89 1009.9
20260506210025 7 360 8.0 12.9 0.00 1.70 0.53 88 1009.9
20260506204508 7 360 6.4 11.3 0.00 1.70 0.53 88 1010.0
20260506203008 7 360 6.4 11.3 0.00 1.70 0.53 88 1010.1
20260506201548 7 78 8.0 11.3 0.00 1.70 0.53 88 1010.1
20260506200055 7 71 8.0 12.9 0.00 1.70 0.53 89 1009.9
20260506194529 7 62 9.7 12.9 0.00 1.70 0.53 89 1010.0
20260506193028 7 78 6.4 9.7 0.00 1.70 0.53 89 1010.0
20260506191511 7 360 6.4 11.3 0.00 1.70 0.53 88 1010.1
20260506190016 7 81 6.4 9.7 0.00 1.70 0.53 89 1010.2
20260506184558 7 77 6.4 11.3 0.00 1.70 0.53 89 1010.2
20260506183108 7 83 6.4 11.3 0.00 1.70 0.53 90 1010.1
20260506181601 7 91 3.2 6.4 0.00 1.70 0.53 92 1010.3
20260506180113 6 360 0.0 4.8 0.00 1.70 0.53 92 1010.4
20260506174553 7 360 1.6 8.0 0.00 1.70 0.53 93 1010.4
20260506173118 7 49 3.2 8.0 0.00 1.70 0.53 94 1010.0
20260506171549 7 3 1.6 8.0 0.00 1.70 0.53 94 1010.1
20260506170048 6 339 3.2 9.7 0.00 1.70 0.53 95 1010.0
20260506164530 6 66 4.8 9.7 0.00 1.70 0.53 96 1009.8
20260506163029 6 59 3.2 9.7 0.00 1.70 0.53 96 1009.7
20260506161512 6 48 1.6 12.9 0.00 1.70 0.53 96 1009.8
20260506160013 6 360 1.6 11.3 0.00 1.70 0.53 96 1009.7
20260506154555 6 45 1.6 9.7 0.00 1.70 0.53 97 1009.8
20260506153051 6 61 1.6 11.3 0.00 1.70 0.53 96 1009.7
20260506151634 6 41 4.8 11.3 0.00 1.70 0.53 97 1009.5
20260506150032 6 360 1.6 11.3 0.00 1.70 0.53 96 1009.6
20260506144519 6 360 1.6 9.7 0.03 1.70 0.53 96 1009.6
20260506143012 6 360 4.8 11.3 0.03 1.70 0.53 96 1009.3
20260506141553 6 52 6.4 12.9 0.05 1.70 0.53 96 1009.3
20260506140053 6 45 4.8 12.9 0.05 1.70 0.53 96 1009.0
20260506134534 6 360 4.8 12.9 0.05 1.68 0.51 96 1009.2
20260506133040 6 360 4.8 14.5 0.05 1.68 0.51 96 1009.1
20260506131513 6 360 3.2 14.5 0.05 1.65 0.48 97 1009.0
20260506130017 6 360 12.9 20.9 0.08 1.65 0.48 97 1008.9
20260506124555 6 360 12.9 20.9 0.08 1.63 0.46 97 1008.9
20260506123055 6 360 6.4 24.1 0.10 1.63 0.46 97 1008.7
20260506121536 6 360 4.8 16.1 0.08 1.60 0.43 97 1008.8
20260506120035 6 360 4.8 14.5 0.08 1.57 0.41 97 1008.9
20260506114522 6 360 4.8 16.1 0.08 1.55 0.38 97 1008.9
20260506113022 6 360 4.8 12.9 0.08 1.52 0.36 96 1008.9
20260506111520 6 360 6.4 20.9 0.13 1.52 0.36 97 1008.7
20260506110020 6 360 17.7 22.5 0.15 1.50 0.33 97 1008.5
20260506104517 6 360 8.0 22.5 0.15 1.45 0.30 97 1008.2
20260506103015 6 360 6.4 14.5 0.18 1.42 0.28 97 1008.7
20260506101515 6 360 8.0 14.5 0.13 1.40 0.23 97 1008.9
20260506100014 6 360 11.3 17.7 0.08 1.35 0.18 97 1008.7
20260506094611 6 360 4.8 17.7 0.08 1.32 0.15 97 1008.9
20260506093054 6 360 6.4 17.7 0.05 1.27 0.10 97 1008.8
20260506091536 6 360 8.0 17.7 0.05 1.27 0.10 96 1008.7
20260506090037 6 360 6.4 17.7 0.08 1.27 0.10 97 1008.6
20260506084531 6 360 9.7 19.3 0.08 1.24 0.08 96 1008.6
20260506083012 6 360 6.4 12.9 0.08 1.22 0.05 97 1008.8
20260506081553 7 360 6.4 14.5 0.10 1.22 0.05 96 1008.9
20260506080105 7 360 8.0 17.7 0.13 1.19 0.03 97 1008.4